STARLINK-11748, 64373

Orbit data source: Space-Track

STARLINK-11748, 64373 is a payload satellite owned by SpaceX/Seattle (US) in LEO that was launched on Fri, 13 Jun 2025 UTC via an FALCON 9 launch vehicle from the Air Force Eastern Test Range (AFETR). Payload-class satellites include a variety of spacecraft equipped with specific instruments for various scientific and technological missions. These include communications satellites like Starlink; space stations such as the ISS; scientific satellites like the Hubble; Earth observation satellites from companies like Planet Labs, Umbra, and HawkEye 360; GPS; miniature CubeSats for education and research; and military/defense satellites.

Loading next visibility...
Identifier
64373, 2025-127D
Orbit
LEO
Country
Flag of USUS
Related business
Manufacturer
SpaceX/Seattle
Mission
Operational Commercial Communications
Bus & Motor
STARLINK V2MD, Unknown motor
Mass
960 kg wet, ~910 kg dry
Launch date (UTC)
2025-06-13 (10 months ago)
Launch vehicle
FALCON 9
Launch site
Air Force Eastern Test Range (AFETR)
Object type
Payload
Rocket body
Debris
Shape & HBR
Box + 2 Pan, 18.1 m
Radar Cross Section
36.964 m², Large (>1 m²)

Expand to show TLE details & history
Last TLE update: 18 hours ago

TLE from 18 hours ago
0 STARLINK-11748
1 64373U 25127D   26094.92590162  .00317591  00000-0  23782-2 0  9995
2 64373  43.0027 286.8415 0002156 300.8144  59.2511 15.70909996 47626
Epoch: 2026-04-04T22:13Z
TLE epoch observation values (Epoch: 2026-04-04T22:13:17.899Z)
Latitude
-0.00007°
Longitude
120.27817°
Altitude
355.324 km
Speed
7.698 km/s
True Right ascension
19h 07m 21s
True Declination
0° 00' 00"
Sunlit
Object was in daylight at epoch
Visualization orbit readout
Latitude
Unknown
Longitude
Unknown
Altitude
Unknown
Speed
Unknown
Apparent Right ascension
Unknown
Apparent Declination
Unknown
Sunlit
N/A
Visualization observer readout
Local Sidereal Time
22:16:10
Azimuth
Unknown
Elevation
Unknown
Doppler factor
Unknown
Orbital elements
Apogee altitude
359.729 km
Perigee altitude
356.824 km
Semi-major axis
6,736.413 km
Eccentricity
0.00022
Inclination
43.0027°
RAAN
286.8415°
Arg. of periapsis
300.8144°
True anomaly
59.27234°
Mean anomaly
59.2511°
Eccentric anomaly
59.26172°
Mean motion
3.92555 °/min
Orbital period
91.71 mins
BSTAR
0.0023782
Loading maneuver chart data...
Computing Atmospheric mass density...
Loading historical data...
Loading historical data...
Loading historical data...
Loading historical data...
Loading historical data...
Loading historical data...
Loading historical data...

Documentation

Showing up to 5 results
|